This is the latest recevied weather packets stored in our database for station/object KB3VSP. If no packets are shown the sender has not sent any weather packets the latest 10 day(s).
| Time | Temp. | Humidity | Pressure | Rain* | Wind** | Luminosity | Snow |
|---|---|---|---|---|---|---|---|
| 1777567729 | 6.67° C | 85% | 1014 hPa | 0 mm | - | 58 W/m² | - |
| 1777567425 | 6.67° C | 84% | 1014.1 hPa | 0 mm | - | 74 W/m² | - |
| 1777567124 | 7.22° C | 84% | 1014.3 hPa | 0 mm | - | 42 W/m² | - |
| 1777566821 | 7.22° C | 84% | 1014 hPa | 0 mm | - | 46 W/m² | - |
| 1777566519 | 7.22° C | 83% | 1013.9 hPa | 0 mm | - | 100 W/m² | - |
| 1777566216 | 7.22° C | 84% | 1014 hPa | 0 mm | - | 141 W/m² | - |
| 1777565913 | 7.22° C | 83% | 1013.7 hPa | 0 mm | - | 112 W/m² | - |
| 1777565608 | 7.22° C | 85% | 1013.8 hPa | 0 mm | - | 168 W/m² | - |
| 1777565305 | 7.22° C | 84% | 1013.9 hPa | 0 mm | - | 78 W/m² | - |
| 1777565001 | 7.22° C | 86% | 1013.9 hPa | 0 mm | - | 162 W/m² | - |
| 1777564696 | 6.67° C | 88% | 1013.7 hPa | 0 mm | - | 201 W/m² | - |
| 1777564392 | 6.11° C | 87% | 1014.1 hPa | 0 mm | - | 121 W/m² | - |
| 1777564088 | 6.11° C | 88% | 1013.9 hPa | 0 mm | - | 83 W/m² | - |
| 1777563784 | 6.11° C | 89% | 1014 hPa | 0 mm | - | 58 W/m² | - |
| 1777563481 | 6.11° C | 90% | 1014 hPa | 0 mm | - | 54 W/m² | - |
| 1777563180 | 6.67° C | 90% | 1013.9 hPa | 0 mm | - | 62 W/m² | - |
| 1777562876 | 6.67° C | 89% | 1013.8 hPa | 0 mm | - | 69 W/m² | - |
| 1777562573 | 6.67° C | 90% | 1013.8 hPa | 0 mm | - | 78 W/m² | - |
| 1777562271 | 6.67° C | 89% | 1013.4 hPa | 0 mm | - | 74 W/m² | - |
| 1777561969 | 6.67° C | 90% | 1013.5 hPa | 0 mm | - | 126 W/m² | - |
| 1777561666 | 6.67° C | 91% | 1013.4 hPa | 0 mm | - | 176 W/m² | - |
| 1777561361 | 6.67° C | 92% | 1013.4 hPa | 0 mm | - | 126 W/m² | - |
| 1777561057 | 5.56° C | 96% | 1013.1 hPa | 0 mm | - | 267 W/m² | - |
| 1777560752 | 5.56° C | 96% | 1013.3 hPa | 0 mm | - | 116 W/m² | - |
| 1777560449 | 5.56° C | 96% | 1013.2 hPa | 0 mm | - | 67 W/m² | - |
* Rain latest hour (hover to see other rain measurements)
** Current wind speed in m/s (hover to see current wind gust speed)